QPF
0.00 0.00 0.00 0.00 0.00 0.00 0.00 0.00 0.00 0.00 0.00 0.00 0.00 0.00 0.00 0.00 0.00 0.00 0.00 0.00 0.00 0.00 0.01 0.01 0.04 0.07 0.02 0.03 0.02 0.01 0.00 0.00 0.00 0.00 0.00 0.00 0.00 0.00 0.00 0.00 0.00 0.04 0.10 0.00 0.00 0.00 0.00 0.00 0.00
0.00 0.00 0.00 0.00 0.00 0.00 0.00 0.00 0.00 0.00 0.00 0.00 0.00 0.00 0.00 0.00 0.00 0.00 0.00 0.00 0.00 0.00 0.01 0.01 0.03 0.04 0.03 0.03 0.02 0.01 0.00 0.01 0.00 0.00 0.00 0.00 0.00 0.00 0.00 0.00 0.00 0.11 0.06 0.00 0.00 0.00 0.00 0.00 0.00
0.00 0.00 0.00 0.00 0.00 0.00 0.00 0.00 0.00 0.00 0.00 0.00 0.00 0.00 0.00 0.00 0.00 0.00 0.00 0.00 0.00 0.00 0.01 0.01 0.04 0.04 0.05 0.02 0.02 0.01 0.00 0.01 0.00 0.00 0.00 0.00 0.00 0.01 0.00 0.00 0.00 0.00 0.00 0.00 0.00 0.00 0.00 0.00 0.00
0.00 0.00 0.00 0.00 0.00 0.00 0.00 0.00 0.00 0.00 0.00 0.00 0.00 0.00 0.00 0.00 0.00 0.00 0.00 0.00 0.00 0.00 0.00 0.01 0.03 0.04 0.03 0.04 0.02 0.00 0.00 0.01 0.00 0.00 0.00 0.00 0.00 0.02 0.01 0.00 0.00 0.00 0.00 0.00 0.00 0.00 0.00 0.00 0.00
0.00 0.00 0.00 0.00 0.00 0.00 0.00 0.00 0.00 0.00 0.00 0.00 0.00 0.00 0.00 0.00 0.00 0.00 0.00 0.00 0.00 0.00 0.00 0.01 0.02 0.02 0.03 0.04 0.03 0.01 0.00 0.01 0.00 0.00 0.00 0.00 0.00 0.01 0.01 0.00 0.00 0.00 0.00 0.00 0.00 0.00 0.00 0.00 0.00
0.00 0.00 0.00 0.00 0.00 0.00 0.00 0.00 0.00 0.00 0.00 0.00 0.00 0.00 0.00 0.00 0.00 0.00 0.00 0.00 0.00 0.00 0.00 0.02 0.00 0.01 0.02 0.03 0.01 0.01 0.00 0.00 0.00 0.00 0.00 0.00 0.00 0.00 0.01 0.00 0.00 0.00 0.00 0.00 0.00 0.00 0.00 0.00 0.00
0.00 0.00 0.00 0.00 0.00 0.00 0.00 0.00 0.00 0.00 0.00 0.00 0.00 0.00 0.00 0.00 0.00 0.00 0.00 0.00 0.00 0.00 0.00 0.00 0.00 0.02 0.00 0.00 0.00 0.00 0.00 0.00 0.00 0.00 0.00 0.00 0.01 0.01 0.01 0.00 0.00 0.00 0.00 0.00 0.00 0.00 0.00 0.00 0.00
0.00 0.00 0.00 0.00 0.00 0.00 0.00 0.00 0.00 0.00 0.00 0.00 0.00 0.00 0.00 0.00 0.00 0.00 0.00 0.00 0.00 0.00 0.00 0.00 0.00 0.01 0.01 0.00 0.00 0.00 0.00 0.00 0.00 0.00 0.00 0.00 0.00 0.00 0.00 0.00 0.00 0.00 0.00 0.00 0.00 0.00 0.00 0.00 0.00
0.00 0.00 0.00 0.00 0.00 0.00 0.00 0.00 0.00 0.00 0.00 0.00 0.00 0.00 0.00 0.00 0.00 0.00 0.00 0.00 0.00 0.00 0.00 0.00 0.00 0.00 0.02 0.03 0.00 0.00 0.00 0.00 0.00 0.00 0.00 0.00 0.00 0.00 0.00 0.00 0.00 0.00 0.00 0.00 0.00 0.00 0.00 0.00 0.00
0.00 0.00 0.00 0.00 0.00 0.00 0.00 0.00 0.00 0.00 0.00 0.00 0.00 0.00 0.00 0.00 0.00 0.00 0.00 0.00 0.00 0.00 0.00 0.00 0.00 0.00 0.00 0.02 0.03 0.00 0.00 0.00 0.00 0.00 0.00 0.00 0.00 0.00 0.00 0.00 0.00 0.00 0.00 0.00 0.00 0.00 0.00 0.00 0.00
0.00 0.00 0.00 0.00 0.00 0.00 0.00 0.00 0.00 0.00 0.00 0.00 0.00 0.00 0.00 0.00 0.00 0.00 0.00 0.00 0.00 0.00 0.00 0.00 0.00 0.00 0.00 0.00 0.02 0.04 0.01 0.00 0.00 0.00 0.00 0.00 0.00 0.00 0.00 0.00 0.00 0.00 0.00 0.00 0.00 0.00 0.00 0.00 0.00
0.00 0.00 0.00 0.00 0.00 0.00 0.00 0.00 0.00 0.00 0.00 0.00 0.00 0.00 0.00 0.00 0.00 0.00 0.00 0.00 0.00 0.00 0.00 0.00 0.00 0.00 0.00 0.00 0.00 0.00 0.01 0.01 0.00 0.00 0.00 0.00 0.00 0.00 0.00 0.00 0.00 0.00 0.00 0.00 0.00 0.00 0.00 0.00 0.00
0.00 0.00 0.00 0.00 0.00 0.00 0.00 0.00 0.00 0.00 0.00 0.00 0.00 0.00 0.00 0.00 0.00 0.00 0.00 0.00 0.00 0.00 0.00 0.00 0.00 0.00 0.00 0.00 0.00 0.00 0.00 0.00 0.04 0.02 0.00 0.00 0.00 0.00 0.00 0.00 0.00 0.00 0.00 0.00 0.00 0.00 0.00 0.00 0.00
0.00 0.00 0.00 0.00 0.00 0.00 0.00 0.00 0.00 0.00 0.00 0.00 0.00 0.00 0.00 0.00 0.00 0.00 0.00 0.00 0.00 0.00 0.00 0.00 0.00 0.00 0.00 0.00 0.00 0.00 0.00 0.00 0.00 0.02 0.03 0.02 0.01 0.00 0.00 0.00 0.00 0.00 0.00 0.00 0.00 0.00 0.00 0.00 0.00
0.00 0.00 0.00 0.00 0.00 0.00 0.00 0.00 0.00 0.00 0.00 0.00 0.00 0.00 0.00 0.00 0.00 0.00 0.00 0.00 0.00 0.00 0.00 0.00 0.00 0.00 0.00 0.00 0.00 0.00 0.00 0.00 0.00 0.00 0.02 0.04 0.03 0.02 0.02 0.00 0.00 0.00 0.00 0.00 0.00 0.00 0.00 0.00 0.00
0.00 0.00 0.00 0.00 0.00 0.00 0.00 0.00 0.00 0.00 0.00 0.00 0.00 0.00 0.00 0.00 0.00 0.00 0.00 0.00 0.00 0.00 0.00 0.00 0.00 0.00 0.00 0.00 0.00 0.00 0.00 0.00 0.00 0.00 0.00 0.03 0.04 0.04 0.07 0.05 0.00 0.06 0.05 0.02 0.00 0.00 0.00 0.00 0.00
0.00 0.00 0.00 0.00 0.00 0.00 0.00 0.00 0.00 0.00 0.00 0.00 0.00 0.00 0.00 0.00 0.00 0.00 0.00 0.00 0.00 0.00 0.00 0.00 0.00 0.00 0.00 0.00 0.00 0.00 0.00 0.00 0.00 0.00 0.00 0.01 0.03 0.04 0.05 0.05 0.04 0.09 0.06 0.02 0.00 0.00 0.00 0.00 0.00
0.00 0.00 0.00 0.00 0.00 0.00 0.00 0.00 0.00 0.00 0.00 0.00 0.00 0.00 0.00 0.00 0.00 0.00 0.00 0.00 0.00 0.00 0.00 0.00 0.00 0.00 0.00 0.00 0.00 0.00 0.00 0.00 0.00 0.00 0.00 0.00 0.01 0.05 0.06 0.05 0.04 0.06 0.06 0.02 0.01 0.00 0.00 0.00 0.00
0.00 0.00 0.00 0.00 0.00 0.00 0.00 0.00 0.00 0.00 0.00 0.00 0.00 0.00 0.00 0.00 0.00 0.00 0.00 0.00 0.00 0.00 0.00 0.00 0.00 0.00 0.00 0.00 0.00 0.00 0.00 0.00 0.00 0.00 0.00 0.00 0.00 0.01 0.05 0.06 0.05 0.05 0.03 0.03 0.07 0.03 0.00 0.00 0.01
0.00 0.00 0.00 0.00 0.00 0.00 0.00 0.00 0.00 0.00 0.00 0.00 0.00 0.00 0.00 0.00 0.00 0.00 0.00 0.00 0.00 0.00 0.00 0.00 0.00 0.00 0.00 0.00 0.00 0.00 0.00 0.00 0.00 0.00 0.00 0.00 0.00 0.00 0.01 0.03 0.05 0.05 0.05 0.04 0.04 0.05 0.02 0.00 0.01
0.00 0.00 0.00 0.00 0.00 0.00 0.00 0.00 0.00 0.00 0.00 0.00 0.00 0.00 0.00 0.00 0.00 0.00 0.00 0.00 0.00 0.00 0.00 0.00 0.00 0.00 0.00 0.00 0.00 0.00 0.00 0.00 0.00 0.00 0.00 0.00 0.00 0.00 0.00 0.01 0.03 0.05 0.05 0.04 0.04 0.07 0.06 0.03 0.02
0.00 0.00 0.00 0.00 0.00 0.00 0.00 0.00 0.00 0.00 0.00 0.00 0.00 0.00 0.00 0.00 0.00 0.00 0.00 0.00 0.00 0.00 0.00 0.00 0.00 0.00 0.00 0.00 0.00 0.00 0.00 0.00 0.00 0.00 0.00 0.00 0.00 0.00 0.00 0.00 0.01 0.03 0.05 0.06 0.05 0.06 0.07 0.07 0.05
0.00 0.00 0.00 0.00 0.00 0.00 0.00 0.00 0.00 0.00 0.00 0.00 0.00 0.00 0.00 0.00 0.00 0.00 0.00 0.00 0.00 0.00 0.00 0.00 0.00 0.00 0.00 0.00 0.00 0.00 0.00 0.00 0.00 0.00 0.00 0.00 0.00 0.00 0.00 0.00 0.00 0.01 0.03 0.06 0.09 0.08 0.07 0.07 0.09
0.00 0.00 0.00 0.00 0.00 0.00 0.00 0.00 0.00 0.00 0.00 0.00 0.00 0.00 0.00 0.00 0.00 0.00 0.00 0.00 0.00 0.00 0.00 0.00 0.00 0.00 0.00 0.00 0.00 0.00 0.00 0.00 0.00 0.00 0.00 0.00 0.00 0.00 0.00 0.00 0.00 0.00 0.01 0.02 0.06 0.10 0.12 0.10 0.11
0.00 0.00 0.00 0.00 0.00 0.00 0.00 0.00 0.00 0.00 0.00 0.00 0.00 0.00 0.00 0.00 0.00 0.00 0.00 0.00 0.00 0.00 0.00 0.00 0.00 0.00 0.00 0.00 0.00 0.00 0.00 0.00 0.00 0.00 0.00 0.00 0.00 0.00 0.00 0.00 0.00 0.00 0.00 0.00 0.02 0.05 0.09 0.10 0.08
0.00 0.00 0.00 0.00 0.00 0.00 0.00 0.00 0.00 0.00 0.00 0.00 0.00 0.00 0.00 0.00 0.00 0.00 0.00 0.00 0.00 0.00 0.00 0.00 0.00 0.00 0.00 0.00 0.00 0.00 0.00 0.00 0.00 0.00 0.00 0.00 0.00 0.00 0.00 0.00 0.00 0.00 0.00 0.00 0.00 0.00 0.02 0.06 0.10
0.00 0.00 0.00 0.00 0.00 0.00 0.00 0.00 0.00 0.00 0.00 0.00 0.00 0.00 0.00 0.00 0.00 0.00 0.00 0.01 0.01 0.01 0.01 0.00 0.00 0.00 0.00 0.00 0.00 0.00 0.00 0.00 0.00 0.00 0.00 0.00 0.00 0.00 0.00 0.00 0.00 0.00 0.00 0.00 0.00 0.00 0.00 0.01 0.03
0.00 0.00 0.00 0.00 0.00 0.00 0.00 0.00 0.00 0.00 0.00 0.00 0.00 0.00 0.00 0.00 0.00 0.00 0.01 0.01 0.03 0.03 0.03 0.01 0.01 0.00 0.00 0.00 0.00 0.00 0.00 0.00 0.00 0.00 0.00 0.00 0.00 0.00 0.00 0.00 0.00 0.00 0.00 0.00 0.00 0.00 0.01 0.01 0.01
0.00 0.00 0.00 0.00 0.00 0.00 0.00 0.00 0.00 0.00 0.00 0.00 0.00 0.00 0.00 0.00 0.00 0.00 0.02 0.02 0.07 0.08 0.07 0.03 0.01 0.00 0.00 0.00 0.00 0.00 0.00 0.00 0.00 0.00 0.00 0.00 0.00 0.00 0.00 0.00 0.00 0.00 0.00 0.00 0.00 0.00 0.01 0.01 0.01
0.00 0.00 0.00 0.00 0.00 0.00 0.00 0.00 0.00 0.00 0.00 0.00 0.00 0.00 0.00 0.00 0.00 0.00 0.03 0.04 0.04 0.07 0.07 0.03 0.01 0.00 0.00 0.00 0.00 0.00 0.00 0.00 0.00 0.00 0.00 0.00 0.00 0.00 0.00 0.00 0.00 0.00 0.00 0.00 0.00 0.00 0.00 0.00 0.01
MSLP
1014.34 1014.24 1014.47 1014.86 1016.51 1017.51 1017.07 1015.94 1014.87 1014.32 1014.03 1013.87 1014.02 1014.03 1015.30 1016.05 1016.43 1017.05 1016.48 1016.47 1016.06 1015.63 1015.29 1015.44 1015.70 1015.94 1016.11 1016.38 1016.56 1016.57 1016.73 1016.78 1016.94 1017.02 1017.13 1017.14 1017.11 1017.12 1017.10 1017.18 1017.23 1017.33 1017.39 1017.71 1017.91 1018.10 1018.32 1018.48 1018.48
1014.35 1014.29 1014.83 1015.94 1017.13 1017.91 1016.94 1015.63 1015.04 1014.56 1014.19 1014.50 1014.46 1015.08 1015.75 1016.93 1016.88 1017.00 1016.86 1016.52 1016.06 1015.49 1015.12 1015.39 1015.72 1015.90 1016.12 1016.41 1016.50 1016.56 1016.70 1016.80 1017.08 1017.19 1017.34 1017.36 1017.33 1017.19 1017.11 1017.21 1017.35 1017.58 1017.78 1018.03 1018.16 1018.35 1018.56 1018.65 1018.73
1014.28 1014.46 1015.64 1016.59 1017.52 1017.39 1016.46 1015.51 1015.01 1014.57 1014.36 1014.39 1015.22 1015.84 1016.53 1017.35 1017.24 1017.23 1016.96 1016.58 1016.01 1015.56 1015.31 1015.51 1015.71 1015.96 1016.10 1016.39 1016.55 1016.55 1016.71 1016.78 1017.01 1017.27 1017.47 1017.54 1017.51 1017.39 1017.43 1017.52 1017.63 1017.81 1018.07 1018.31 1018.43 1018.60 1018.73 1018.79 1018.87
1014.61 1015.12 1016.50 1016.77 1017.17 1016.44 1015.83 1015.42 1015.13 1014.80 1014.56 1014.65 1015.49 1016.66 1017.20 1017.58 1017.39 1017.27 1017.00 1016.62 1016.30 1015.78 1015.47 1015.53 1015.73 1015.93 1016.15 1016.36 1016.56 1016.73 1016.81 1016.80 1017.07 1017.32 1017.54 1017.66 1017.68 1017.63 1017.79 1018.00 1018.09 1018.19 1018.35 1018.47 1018.57 1018.73 1018.87 1019.00 1019.01
1015.14 1016.27 1017.18 1017.43 1016.94 1016.17 1015.82 1015.51 1015.29 1015.22 1015.39 1015.65 1015.68 1017.27 1017.81 1017.82 1017.64 1017.43 1017.20 1016.88 1016.61 1016.12 1015.68 1015.55 1015.84 1016.04 1016.29 1016.47 1016.68 1016.90 1016.93 1016.99 1017.21 1017.43 1017.60 1017.70 1017.76 1017.81 1017.97 1018.21 1018.40 1018.54 1018.63 1018.69 1018.80 1018.91 1018.99 1019.11 1019.18
1016.26 1016.98 1017.81 1017.88 1017.13 1016.49 1016.12 1015.85 1015.59 1015.78 1015.91 1016.03 1016.52 1017.35 1018.31 1018.15 1017.87 1017.66 1017.45 1017.19 1016.82 1016.50 1016.02 1015.69 1015.98 1016.25 1016.36 1016.50 1016.61 1016.83 1016.99 1017.14 1017.32 1017.45 1017.64 1017.82 1017.89 1017.95 1018.10 1018.30 1018.43 1018.56 1018.72 1018.85 1018.90 1019.01 1019.08 1019.20 1019.31
1016.71 1017.70 1018.12 1018.05 1017.55 1017.17 1016.88 1016.49 1016.60 1016.60 1016.53 1016.69 1016.77 1017.85 1018.52 1018.27 1017.94 1017.82 1017.75 1017.60 1017.26 1016.84 1016.52 1016.32 1016.18 1016.27 1016.48 1016.64 1016.78 1016.83 1016.93 1017.11 1017.30 1017.42 1017.56 1017.77 1017.97 1018.05 1018.15 1018.40 1018.52 1018.58 1018.67 1018.79 1018.93 1019.06 1019.18 1019.26 1019.39
1016.95 1017.86 1018.49 1018.81 1018.32 1018.16 1017.63 1017.16 1017.27 1017.07 1017.11 1016.90 1016.83 1018.01 1018.37 1018.03 1017.91 1018.02 1018.00 1017.88 1017.67 1017.37 1017.01 1016.91 1016.70 1016.52 1016.58 1016.74 1016.91 1016.98 1017.01 1017.11 1017.25 1017.39 1017.57 1017.78 1017.94 1018.08 1018.18 1018.49 1018.63 1018.67 1018.76 1018.86 1018.96 1019.08 1019.19 1019.31 1019.44
1017.03 1018.38 1019.45 1019.48 1018.95 1018.73 1018.24 1017.95 1017.85 1017.66 1017.45 1017.28 1017.43 1017.83 1017.71 1017.71 1017.93 1018.03 1018.18 1018.27 1018.07 1017.83 1017.59 1017.33 1017.09 1017.08 1016.96 1016.70 1016.76 1016.95 1017.04 1017.13 1017.28 1017.40 1017.53 1017.73 1017.90 1018.05 1018.24 1018.36 1018.63 1018.84 1018.86 1018.82 1018.90 1019.05 1019.24 1019.39 1019.51
1017.89 1019.32 1019.69 1019.73 1019.48 1019.22 1018.93 1018.72 1018.71 1018.38 1018.25 1018.21 1018.27 1018.29 1018.37 1018.36 1018.44 1018.51 1018.55 1018.50 1018.37 1018.22 1018.01 1017.86 1017.48 1017.34 1017.12 1017.02 1016.79 1016.76 1016.92 1017.08 1017.25 1017.42 1017.58 1017.72 1017.87 1017.99 1018.11 1018.31 1018.40 1018.64 1019.02 1019.12 1019.06 1019.08 1019.19 1019.43 1019.62
1018.60 1019.50 1019.82 1019.95 1019.71 1019.59 1019.48 1019.33 1019.20 1019.00 1018.86 1018.74 1019.09 1018.98 1018.79 1018.88 1018.90 1018.92 1018.87 1018.78 1018.57 1018.30 1018.18 1018.07 1017.90 1017.73 1017.57 1017.23 1017.26 1017.15 1016.84 1016.91 1017.11 1017.25 1017.46 1017.69 1017.80 1017.98 1018.09 1018.30 1018.45 1018.34 1018.77 1019.18 1019.24 1019.23 1019.31 1019.49 1019.68
1019.31 1019.69 1019.78 1020.05 1019.94 1019.84 1019.93 1019.88 1019.75 1019.58 1019.03 1018.93 1019.05 1019.08 1019.09 1019.16 1019.18 1019.08 1019.01 1018.84 1018.70 1018.49 1018.30 1018.08 1017.96 1017.96 1017.79 1017.65 1017.41 1017.36 1017.23 1017.02 1016.97 1017.06 1017.18 1017.39 1017.64 1017.85 1017.91 1018.09 1018.22 1018.37 1018.35 1018.94 1019.11 1019.32 1019.34 1019.46 1019.61
1019.59 1019.91 1019.92 1020.05 1020.08 1020.12 1020.29 1020.39 1020.31 1019.67 1019.24 1019.01 1019.01 1019.16 1019.31 1019.43 1019.12 1019.08 1018.86 1018.71 1018.57 1018.51 1018.29 1018.12 1018.01 1017.90 1017.79 1017.80 1017.70 1017.50 1017.42 1017.14 1016.96 1016.84 1016.90 1017.05 1017.19 1017.38 1017.59 1017.77 1017.96 1018.01 1018.23 1018.48 1018.89 1019.19 1019.31 1019.38 1019.46
1019.95 1019.95 1020.16 1020.20 1020.26 1020.45 1020.54 1020.71 1020.51 1019.47 1019.32 1019.23 1019.14 1019.13 1019.26 1019.36 1019.19 1018.93 1018.75 1018.59 1018.38 1018.16 1018.01 1017.79 1017.85 1017.72 1017.68 1017.69 1017.64 1017.46 1017.43 1017.32 1017.03 1016.83 1016.72 1016.56 1016.66 1016.85 1017.05 1017.30 1017.51 1017.64 1017.83 1018.05 1018.30 1018.67 1018.99 1019.16 1019.28
1020.21 1020.50 1020.48 1020.51 1020.54 1020.79 1020.89 1020.96 1020.61 1019.65 1019.50 1019.67 1019.73 1019.53 1019.48 1019.32 1019.05 1018.90 1018.56 1018.44 1018.12 1017.80 1017.60 1017.59 1017.49 1017.44 1017.56 1017.47 1017.40 1017.34 1017.29 1017.10 1017.15 1016.85 1016.57 1016.40 1016.30 1016.25 1016.42 1016.68 1016.94 1017.01 1017.25 1017.55 1017.93 1018.33 1018.59 1018.95 1019.06
1020.87 1021.18 1021.41 1021.04 1021.05 1021.18 1021.35 1021.10 1020.14 1019.84 1019.85 1019.88 1019.96 1019.90 1019.71 1019.29 1018.85 1018.51 1018.09 1017.93 1017.65 1017.60 1017.58 1017.29 1017.25 1017.16 1017.21 1017.35 1017.22 1017.10 1016.94 1016.91 1016.87 1016.79 1016.58 1016.21 1015.96 1015.86 1016.01 1016.21 1016.24 1016.32 1016.70 1016.86 1017.42 1017.90 1018.24 1018.47 1018.67
1022.11 1022.09 1021.96 1021.66 1021.41 1021.67 1021.93 1021.41 1020.65 1020.06 1020.27 1020.19 1019.91 1019.97 1019.82 1019.38 1018.84 1018.31 1017.85 1017.71 1017.57 1017.42 1017.20 1017.06 1016.90 1016.93 1016.85 1016.77 1016.80 1016.85 1016.72 1016.70 1016.51 1016.40 1016.38 1016.12 1015.83 1015.53 1015.54 1015.60 1015.58 1015.82 1016.11 1016.55 1016.85 1017.33 1017.60 1017.86 1018.13
1022.74 1022.70 1022.60 1022.40 1022.64 1022.35 1022.44 1021.83 1021.14 1020.81 1020.78 1020.20 1019.93 1019.88 1019.90 1019.74 1019.49 1018.98 1018.49 1018.19 1017.78 1017.59 1017.45 1017.29 1017.07 1017.00 1016.85 1016.74 1016.61 1016.54 1016.48 1016.29 1016.14 1016.03 1015.96 1015.79 1015.62 1015.36 1015.11 1014.94 1015.08 1015.28 1015.77 1015.97 1016.22 1016.59 1017.00 1017.06 1017.39
1022.99 1023.26 1023.39 1023.21 1023.40 1023.25 1023.01 1022.80 1021.35 1020.23 1020.46 1020.16 1019.96 1020.11 1020.64 1020.41 1019.91 1019.28 1018.78 1018.43 1018.15 1017.84 1017.66 1017.29 1017.19 1016.72 1016.65 1016.67 1016.72 1016.49 1016.11 1015.77 1015.54 1015.41 1015.26 1015.26 1015.21 1015.06 1014.94 1014.63 1014.58 1014.75 1015.02 1015.15 1015.40 1015.73 1016.20 1016.53 1016.79
1023.69 1024.11 1024.35 1024.04 1024.01 1024.32 1023.95 1022.93 1021.18 1020.25 1020.07 1019.96 1020.49 1020.87 1021.00 1020.67 1019.91 1019.35 1018.99 1018.57 1018.31 1018.00 1017.73 1017.46 1017.00 1016.57 1016.29 1016.18 1015.98 1015.75 1015.37 1014.89 1014.73 1014.57 1014.53 1014.60 1014.63 1014.59 1014.45 1014.51 1014.33 1014.24 1014.51 1014.72 1015.00 1015.26 1015.45 1015.61 1016.14
1024.86 1025.04 1025.48 1025.85 1025.53 1025.35 1024.77 1023.32 1022.16 1020.75 1020.44 1020.46 1020.80 1021.12 1021.18 1021.02 1020.52 1019.75 1018.96 1018.50 1018.04 1017.75 1017.43 1017.15 1016.66 1016.23 1015.80 1015.51 1015.35 1015.22 1015.10 1014.70 1014.37 1014.28 1014.21 1014.09 1014.05 1013.93 1013.94 1013.84 1013.97 1013.96 1013.97 1013.87 1014.28 1014.54 1014.95 1015.11 1015.33
1025.49 1025.71 1026.15 1026.70 1027.30 1027.53 1026.83 1025.74 1023.29 1021.84 1021.23 1021.02 1021.09 1021.18 1021.15 1020.86 1020.31 1019.92 1019.22 1018.61 1018.11 1017.41 1016.91 1016.49 1016.10 1015.57 1015.15 1014.88 1014.70 1014.62 1014.37 1014.00 1013.64 1013.49 1013.55 1013.51 1013.47 1013.41 1013.26 1013.28 1013.27 1013.48 1013.52 1013.70 1013.53 1013.88 1014.01 1014.43 1014.69
1025.80 1026.07 1026.79 1027.65 1028.62 1029.12 1028.23 1027.79 1023.79 1022.48 1021.75 1021.53 1021.31 1021.25 1021.14 1020.81 1020.48 1019.94 1019.21 1018.56 1017.82 1017.03 1016.37 1015.83 1015.34 1014.87 1014.45 1014.24 1013.96 1013.72 1013.39 1013.10 1012.84 1012.98 1012.99 1013.06 1012.99 1012.90 1012.92 1012.70 1012.75 1012.81 1012.93 1013.10 1013.27 1013.30 1013.38 1013.57 1013.96
1025.81 1026.47 1027.60 1028.57 1029.73 1030.15 1028.52 1027.74 1024.56 1022.99 1022.18 1021.80 1021.34 1021.28 1020.97 1020.53 1020.05 1019.47 1018.84 1018.04 1017.42 1016.57 1015.81 1015.22 1014.62 1013.98 1013.63 1013.29 1013.00 1012.71 1012.40 1012.31 1012.35 1012.49 1012.50 1012.64 1012.54 1012.45 1012.39 1012.35 1012.18 1012.21 1012.29 1012.42 1012.62 1012.92 1013.12 1013.07 1013.18
1026.23 1027.39 1028.78 1030.02 1030.63 1029.83 1028.44 1027.89 1023.74 1022.46 1021.88 1021.67 1021.30 1020.94 1020.55 1019.98 1019.54 1018.67 1017.99 1017.32 1016.53 1015.83 1015.22 1014.64 1014.00 1013.42 1012.90 1012.45 1012.03 1011.60 1011.39 1011.39 1011.46 1011.71 1011.77 1012.03 1012.15 1012.04 1011.84 1011.79 1011.75 1011.67 1011.71 1011.80 1011.98 1012.13 1012.33 1012.66 1012.86
1026.60 1027.58 1028.85 1030.12 1030.83 1029.50 1028.17 1026.31 1022.76 1021.64 1021.27 1021.02 1020.92 1020.49 1020.06 1019.76 1019.28 1018.60 1017.99 1017.26 1016.48 1015.67 1014.99 1014.28 1013.57 1013.03 1012.50 1011.86 1011.22 1010.77 1010.59 1010.63 1010.74 1010.91 1011.00 1011.20 1011.36 1011.40 1011.27 1011.11 1011.11 1011.12 1011.19 1011.30 1011.37 1011.49 1011.63 1011.87 1012.05
1026.58 1027.28 1027.67 1028.65 1029.55 1029.27 1026.94 1024.57 1022.30 1021.42 1020.90 1020.25 1020.38 1020.19 1019.71 1019.02 1018.40 1017.95 1017.32 1016.75 1016.07 1015.36 1014.63 1013.96 1013.35 1012.73 1012.05 1011.37 1010.76 1010.10 1009.91 1010.20 1010.30 1010.27 1010.38 1010.47 1010.66 1010.80 1010.74 1010.60 1010.59 1010.54 1010.61 1010.73 1010.87 1010.99 1011.06 1011.20 1011.48
1026.23 1026.73 1027.27 1028.08 1028.70 1028.07 1026.28 1024.57 1022.38 1021.40 1020.70 1020.21 1019.97 1019.67 1018.93 1018.14 1017.66 1017.40 1017.03 1016.69 1016.01 1015.32 1014.58 1013.77 1013.03 1012.31 1011.61 1010.99 1010.51 1009.69 1009.51 1009.48 1009.57 1009.78 1009.94 1009.99 1010.11 1010.33 1010.30 1010.19 1010.15 1010.17 1010.13 1010.18 1010.32 1010.48 1010.56 1010.72 1010.87
1026.05 1026.19 1026.48 1027.01 1027.07 1027.16 1026.26 1023.23 1020.71 1020.55 1020.15 1019.65 1019.11 1018.65 1018.18 1017.65 1017.35 1017.27 1016.99 1016.65 1016.10 1015.36 1014.56 1013.71 1012.90 1012.13 1011.34 1010.71 1010.33 1009.77 1009.35 1009.27 1009.34 1009.55 1009.61 1009.68 1009.74 1009.78 1009.86 1009.80 1009.94 1010.00 1009.98 1009.89 1010.06 1010.22 1010.27 1010.38 1010.41
1024.42 1024.61 1025.00 1025.85 1026.27 1025.97 1025.26 1021.97 1019.45 1019.32 1019.16 1018.84 1018.15 1017.91 1017.81 1017.62 1017.39 1017.18 1016.82 1016.53 1016.01 1015.40 1014.65 1013.84 1012.95 1012.03 1011.30 1010.41 1009.98 1009.45 1009.04 1009.08 1009.22 1009.26 1009.20 1009.23 1009.24 1009.30 1009.47 1009.44 1009.53 1009.70 1009.74 1009.72 1009.84 1010.01 1010.00 1010.11 1010.10
Thickness
5722 5726 5727 5723 5693 5682 5683 5703 5724 5726 5729 5740 5738 5736 5723 5720 5717 5711 5735 5737 5742 5745 5746 5745 5743 5742 5741 5742 5741 5741 5741 5741 5741 5742 5742 5743 5743 5744 5744 5744 5743 5742 5741 5738 5736 5734 5732 5730 5729
5718 5722 5718 5701 5673 5664 5679 5709 5713 5721 5731 5732 5735 5731 5722 5711 5722 5724 5729 5736 5741 5745 5747 5745 5742 5741 5740 5739 5740 5740 5740 5740 5738 5738 5738 5740 5740 5742 5743 5742 5741 5739 5737 5735 5734 5733 5731 5730 5728
5714 5718 5701 5684 5665 5669 5685 5709 5710 5723 5728 5733 5725 5722 5716 5711 5720 5722 5729 5735 5740 5744 5745 5744 5742 5740 5739 5737 5737 5738 5737 5738 5738 5736 5736 5736 5737 5739 5739 5738 5738 5736 5734 5732 5732 5731 5729 5728 5728
5703 5701 5690 5673 5675 5695 5701 5704 5711 5718 5725 5726 5719 5707 5712 5714 5718 5723 5727 5732 5736 5741 5743 5742 5741 5740 5738 5737 5736 5734 5734 5735 5735 5734 5733 5733 5734 5735 5735 5733 5733 5732 5731 5730 5729 5728 5727 5726 5726
5692 5681 5664 5663 5679 5695 5699 5705 5710 5709 5711 5711 5718 5698 5699 5710 5715 5719 5722 5727 5729 5735 5739 5740 5738 5737 5735 5734 5733 5732 5731 5731 5730 5729 5729 5730 5731 5731 5731 5731 5729 5728 5727 5726 5726 5725 5725 5724 5723
5672 5670 5654 5653 5672 5685 5692 5697 5705 5701 5704 5707 5703 5697 5693 5703 5708 5713 5717 5720 5724 5728 5733 5736 5734 5733 5732 5732 5732 5731 5730 5728 5727 5726 5726 5726 5726 5727 5727 5727 5727 5726 5725 5724 5723 5723 5722 5721 5720
5664 5655 5652 5658 5665 5673 5681 5688 5684 5688 5690 5694 5703 5688 5688 5697 5704 5707 5709 5713 5717 5722 5725 5728 5729 5729 5728 5728 5728 5728 5728 5726 5725 5725 5724 5722 5722 5723 5723 5722 5722 5722 5722 5722 5721 5720 5719 5719 5717
5659 5654 5660 5643 5656 5659 5669 5680 5679 5683 5683 5694 5699 5679 5679 5693 5700 5701 5703 5705 5709 5714 5717 5718 5721 5723 5724 5723 5723 5724 5724 5724 5723 5722 5721 5720 5719 5719 5719 5718 5717 5717 5717 5717 5717 5717 5716 5716 5714
5661 5637 5634 5639 5650 5655 5664 5670 5671 5678 5678 5684 5686 5684 5689 5693 5695 5696 5695 5696 5699 5703 5707 5710 5713 5713 5716 5719 5720 5719 5720 5721 5720 5719 5718 5717 5717 5717 5716 5715 5714 5712 5712 5713 5713 5713 5712 5711 5711
5639 5622 5636 5639 5641 5648 5656 5660 5658 5666 5665 5669 5673 5677 5680 5682 5682 5682 5684 5684 5688 5693 5697 5700 5705 5707 5709 5711 5714 5716 5716 5716 5716 5715 5714 5714 5714 5713 5713 5712 5712 5709 5705 5705 5706 5707 5707 5707 5706
5635 5624 5630 5634 5639 5644 5649 5650 5652 5656 5659 5664 5660 5666 5671 5672 5672 5672 5675 5678 5682 5686 5688 5692 5695 5699 5701 5704 5705 5707 5711 5712 5712 5711 5710 5710 5710 5709 5709 5707 5706 5707 5702 5699 5700 5702 5702 5702 5701
5619 5626 5629 5628 5633 5635 5637 5641 5642 5647 5654 5659 5660 5662 5665 5665 5666 5668 5669 5672 5674 5677 5679 5683 5686 5689 5693 5696 5698 5699 5701 5704 5707 5707 5707 5706 5706 5705 5705 5704 5703 5702 5702 5697 5695 5695 5697 5697 5697
5614 5619 5622 5623 5626 5628 5630 5630 5634 5640 5646 5651 5654 5656 5654 5655 5659 5663 5666 5667 5669 5670 5673 5675 5678 5680 5683 5686 5689 5691 5693 5696 5698 5702 5703 5703 5702 5703 5702 5701 5700 5700 5697 5693 5689 5689 5691 5692 5693
5609 5613 5613 5616 5619 5618 5622 5622 5627 5639 5644 5645 5648 5649 5649 5650 5652 5657 5660 5662 5665 5668 5669 5671 5672 5673 5675 5677 5679 5682 5685 5688 5691 5693 5696 5699 5700 5700 5699 5698 5697 5698 5696 5691 5689 5687 5687 5687 5688
5599 5600 5604 5608 5611 5610 5612 5615 5614 5629 5634 5632 5634 5637 5639 5642 5645 5648 5653 5656 5659 5663 5665 5664 5665 5667 5667 5669 5671 5673 5676 5679 5683 5686 5688 5691 5694 5698 5698 5696 5696 5696 5694 5692 5688 5685 5685 5683 5683
5588 5585 5584 5598 5600 5601 5602 5600 5618 5622 5626 5626 5625 5624 5627 5634 5640 5643 5647 5649 5653 5655 5656 5658 5659 5661 5662 5662 5663 5666 5668 5671 5675 5678 5680 5684 5688 5691 5693 5694 5696 5695 5691 5692 5690 5686 5684 5682 5682
5562 5557 5581 5586 5593 5594 5593 5598 5605 5612 5611 5614 5618 5613 5617 5624 5631 5635 5638 5639 5642 5645 5649 5651 5653 5653 5654 5656 5657 5658 5660 5663 5666 5669 5672 5676 5680 5684 5686 5689 5692 5691 5690 5688 5687 5685 5684 5682 5680
5552 5566 5572 5577 5575 5581 5578 5580 5594 5596 5597 5606 5611 5607 5608 5610 5614 5620 5625 5628 5632 5634 5636 5638 5639 5639 5642 5645 5648 5650 5652 5656 5659 5663 5665 5668 5671 5676 5680 5684 5685 5686 5684 5685 5685 5684 5681 5682 5680
5558 5559 5559 5564 5563 5566 5566 5562 5586 5597 5591 5591 5595 5593 5590 5596 5601 5608 5612 5615 5618 5620 5622 5625 5625 5628 5629 5632 5634 5638 5643 5649 5653 5657 5660 5662 5663 5666 5670 5675 5680 5680 5681 5684 5682 5681 5679 5679 5677
5545 5546 5541 5547 5555 5551 5546 5560 5579 5586 5587 5588 5585 5578 5579 5583 5591 5595 5597 5599 5599 5601 5603 5605 5610 5615 5618 5619 5624 5629 5635 5642 5648 5651 5655 5656 5658 5660 5663 5665 5671 5675 5675 5676 5676 5675 5674 5676 5673
5519 5528 5527 5528 5529 5536 5537 5552 5556 5580 5578 5578 5573 5571 5570 5569 5572 5578 5584 5585 5586 5586 5587 5592 5596 5601 5606 5609 5611 5614 5619 5629 5635 5640 5643 5647 5649 5653 5655 5657 5660 5664 5667 5670 5670 5670 5667 5667 5670
5507 5522 5523 5521 5495 5484 5519 5498 5536 5560 5567 5564 5563 5559 5558 5558 5564 5565 5568 5569 5570 5575 5576 5577 5581 5586 5592 5594 5598 5601 5608 5618 5627 5630 5631 5635 5639 5644 5648 5649 5651 5655 5658 5659 5663 5663 5664 5662 5661
5509 5517 5516 5511 5467 5464 5498 5475 5520 5547 5564 5554 5551 5553 5550 5550 5548 5550 5551 5552 5555 5557 5559 5560 5563 5568 5572 5575 5581 5588 5596 5605 5612 5614 5619 5623 5627 5632 5636 5640 5644 5646 5650 5651 5652 5654 5656 5657 5656
5514 5508 5494 5490 5446 5446 5491 5483 5505 5531 5543 5539 5542 5542 5544 5540 5540 5540 5542 5544 5542 5544 5546 5545 5547 5551 5553 5558 5565 5573 5582 5590 5595 5598 5605 5609 5615 5619 5624 5627 5634 5638 5640 5642 5643 5642 5644 5648 5649
5494 5467 5428 5448 5432 5468 5450 5456 5514 5531 5535 5533 5532 5534 5534 5535 5535 5539 5541 5540 5540 5538 5536 5534 5530 5530 5534 5541 5550 5560 5570 5578 5584 5587 5592 5595 5600 5606 5612 5615 5621 5627 5630 5631 5631 5633 5634 5635 5636
5490 5486 5440 5447 5438 5462 5473 5476 5511 5532 5531 5532 5530 5532 5536 5534 5535 5536 5534 5532 5528 5525 5521 5516 5511 5511 5518 5530 5543 5554 5563 5567 5570 5574 5578 5582 5587 5592 5597 5603 5607 5613 5617 5619 5621 5622 5625 5626 5626
5491 5472 5496 5488 5458 5483 5459 5499 5523 5530 5532 5539 5532 5532 5528 5536 5540 5538 5534 5527 5520 5515 5512 5507 5501 5502 5510 5522 5537 5549 5556 5556 5558 5560 5565 5570 5575 5579 5584 5591 5595 5599 5603 5607 5608 5609 5612 5615 5615
5489 5491 5483 5468 5442 5446 5471 5471 5511 5515 5529 5534 5536 5531 5531 5542 5541 5537 5530 5521 5514 5509 5508 5505 5503 5505 5511 5521 5531 5545 5551 5553 5554 5553 5555 5558 5561 5564 5570 5576 5581 5585 5588 5591 5593 5595 5596 5598 5600
5482 5478 5486 5475 5490 5462 5479 5496 5514 5519 5525 5529 5534 5536 5538 5541 5540 5534 5527 5519 5511 5508 5508 5509 5510 5511 5517 5525 5531 5539 5546 5549 5549 5550 5551 5553 5554 5556 5559 5563 5565 5567 5570 5573 5574 5576 5578 5581 5584
5493 5492 5494 5481 5479 5484 5465 5499 5545 5538 5538 5537 5544 5545 5542 5539 5538 5531 5527 5522 5516 5512 5510 5513 5517 5520 5522 5529 5535 5543 5549 5550 5551 5551 5552 5551 5551 5550 5549 5551 5552 5552 5553 5555 5556 5557 5559 5562 5566